Regional Weather Roundup
Issued by NWS

Home | Current Version | Previous Version | Text Only | Print | Product List | Glossary On
Versions: 1 2 3 4 5 6 7 8 9 10 11 12 13 14 15 16 17 18 19 20 21 22 23 24 25 26 27 28 29 30 31 32 33 34 35 36 37 38 39 40 41 42 43 44 45 46 47 48 49 50
000
ASUS43 KTOP 231308
RWRKS

WEATHER ROUNDUP FOR KANSAS
NATIONAL WEATHER SERVICE GOODLAND KS
800 AM CDT SAT AUG 23 2014

NOTE:  "FAIR" INDICATES FEW OR NO CLOUDS BELOW 12,000 FEET WITH NO
SIGNIFICANT WEATHER AND/OR OBSTRUCTIONS TO VISIBILITY.

KSZ001>006-013>018-027>032-041>047-231400-
NORTHWEST KANSAS

CITY           SKY/WX    TMP DP  RH WIND       PRES   REMARKS
GOODLAND       MOCLDY    64  63  96 E3        29.90R
HAYS           SUNNY     70  63  78 S5        29.87S
HILL CITY      SUNNY     68  67  96 SE3       29.87R
RUSSELL        SUNNY     70  61  73 S8        29.86S
$$

KSZ061>065-074>080-084>089-231400-
SOUTHWEST KANSAS

CITY           SKY/WX    TMP DP  RH WIND       PRES   REMARKS
DODGE CITY     SUNNY     69  61  75 S9        29.91R
ELKHART          N/A     70  56  61 S13         N/A
GARDEN CITY    PTCLDY    66  62  87 S6        29.90S
GREAT BEND     SUNNY     72  59  64 S12       29.88S
LIBERAL        PTCLDY    70  61  73 S13       29.94S
PRATT          SUNNY     70  54  56 S8        29.92S
$$

KSZ066>073-081>083-090>101-231400-
SOUTHEAST KANSAS

CITY           SKY/WX    TMP DP  RH WIND       PRES   REMARKS
CHANUTE        SUNNY     77  68  73 S10       29.94R
COFFEYVILLE    SUNNY     78  69  73 S12       29.93S
HUTCHINSON     SUNNY     74  60  61 S6        29.89R
MEDICINE LODGE   N/A     72  56  57 CALM      29.91R
NEWTON         SUNNY     75  55  50 S15       29.93R
PARSONS        SUNNY     77  69  76 S5        29.95R
WICHITA INTL   MOSUNNY   73  61  65 S8        29.90R
WICHITA JABRA  SUNNY     75  61  61 S8        29.90R
WICHITA MCCONL SUNNY     74  62  65 S10       29.91R
WINFIELD       SUNNY     76  62  62 S13       29.94R
$$

KSZ007>012-019>026-033>040-048>060-102>105-231400-
NORTHEAST KANSAS

CITY           SKY/WX    TMP DP  RH WIND       PRES   REMARKS
CONCORDIA      MOSUNNY   72  72 100 SE6       29.86S FOG
EMPORIA        SUNNY     73  65  75 S15       29.89S
LAWRENCE       MOSUNNY   79  68  69 CALM      29.92R
MANHATTAN      SUNNY     78  65  63 SE3       29.87S
MARYSVILLE     PTSUNNY   72  70  94 SE10      29.89R
OLATHE IND     SUNNY     76  70  82 S10       29.93R
OLATHE EXE     PTSUNNY   75  69  81 S7        29.93R
SALINA         SUNNY     76  62  62 S7        29.86R
TOPEKA BILLARD SUNNY     79  67  66 S6        29.91R
TOPEKA FORBES  SUNNY     77  67  71 N7        29.92R
$$


USA.gov is the U.S. government's official web portal to all federal, state and local government web resources and services.